timestamp,wind_dir_avg,wind_spd_avg,wind_spd_max_dir,wind_spd_gust,battery_voltage,lat,long
2019-11-23 00:04:01+00:00,337.0,9.11,344.0,10.69,12.65,47.59359,-54.27349
2019-11-23 00:14:01+00:00,351.0,7.35,351.0,9.5,12.65,47.59359,-54.27349
2019-11-23 00:24:01+00:00,335.0,6.22,336.0,7.12,12.65,47.59359,-54.27349
2019-11-23 00:34:01+00:00,330.0,6.37,323.0,7.9,12.65,47.59359,-54.27349
2019-11-23 00:44:01+00:00,349.0,7.39,349.0,9.03,12.65,47.59359,-54.27349
2019-11-23 00:54:01+00:00,349.0,6.4,347.0,7.85,12.65,47.59359,-54.27349
2019-11-23 01:04:01+00:00,357.0,6.83,350.0,8.23,12.65,47.59359,-54.27349
2019-11-23 01:14:01+00:00,0.0,7.29,4.0,8.74,12.57,47.59359,-54.27349
2019-11-23 01:24:01+00:00,351.0,7.92,354.0,8.66,12.57,47.59359,-54.27349
2019-11-23 01:34:01+00:00,358.0,8.11,354.0,9.1,12.57,47.59359,-54.27349
2019-11-23 01:44:01+00:00,356.0,6.91,356.0,7.92,12.57,47.59359,-54.27349
2019-11-23 01:54:01+00:00,358.0,5.68,359.0,6.33,12.57,47.59359,-54.27349
2019-11-23 02:04:01+00:00,333.0,5.79,341.0,6.64,12.57,47.59359,-54.27349
2019-11-23 02:14:01+00:00,338.0,5.47,339.0,6.26,12.57,47.59359,-54.27349
2019-11-23 02:24:01+00:00,341.0,5.92,339.0,6.43,12.57,47.59359,-54.27349
2019-11-23 02:34:01+00:00,348.0,5.16,340.0,6.38,12.57,47.59359,-54.27349
2019-11-23 02:44:01+00:00,336.0,6.13,335.0,6.66,12.57,47.59359,-54.27349
2019-11-23 02:54:01+00:00,333.0,6.36,332.0,7.11,12.57,47.59359,-54.27349
2019-11-23 03:04:01+00:00,343.0,4.62,345.0,5.74,12.57,47.59359,-54.27349
2019-11-23 03:14:01+00:00,355.0,4.18,355.0,6.14,12.57,47.59359,-54.27349
2019-11-23 03:24:01+00:00,333.0,4.87,346.0,5.92,12.57,47.59359,-54.27349
2019-11-23 03:34:01+00:00,317.0,5.73,319.0,6.66,12.57,47.59359,-54.27349
2019-11-23 03:44:01+00:00,328.0,4.42,325.0,5.39,12.57,47.59359,-54.27349
2019-11-23 03:54:01+00:00,300.0,3.41,307.0,4.27,12.57,47.59359,-54.27349
2019-11-23 04:04:01+00:00,316.0,4.83,323.0,5.53,12.57,47.59359,-54.27349
2019-11-23 04:14:01+00:00,318.0,4.97,316.0,6.12,12.57,47.59359,-54.27349
2019-11-23 04:24:01+00:00,314.0,5.51,318.0,6.36,12.57,47.59359,-54.27349
2019-11-23 04:34:01+00:00,319.0,5.49,316.0,6.66,12.57,47.59359,-54.27349
2019-11-23 04:44:01+00:00,319.0,6.42,320.0,7.19,12.57,47.59359,-54.27349
2019-11-23 04:54:01+00:00,322.0,6.83,323.0,8.22,12.57,47.59359,-54.27349
2019-11-23 05:04:01+00:00,330.0,3.72,326.0,4.29,12.57,47.59359,-54.27349
2019-11-23 05:14:01+00:00,325.0,3.24,326.0,4.02,12.57,47.59359,-54.27349
2019-11-23 05:24:01+00:00,302.0,2.06,301.0,2.67,12.57,47.59359,-54.27349
2019-11-23 05:34:01+00:00,333.0,3.51,325.0,4.0,12.57,47.59359,-54.27349
2019-11-23 05:44:01+00:00,337.0,5.09,336.0,5.58,12.57,47.59359,-54.27349
2019-11-23 05:54:01+00:00,338.0,3.0,350.0,4.25,12.57,47.59359,-54.27349
2019-11-23 06:04:01+00:00,323.0,4.94,318.0,5.9,12.57,47.59359,-54.27349
2019-11-23 06:14:01+00:00,13.0,0.59,337.0,1.0,12.49,47.59359,-54.27349
2019-11-23 06:24:01+00:00,7.0,2.24,13.0,2.83,12.49,47.59359,-54.27349
2019-11-23 06:34:01+00:00,14.0,1.35,7.0,1.93,12.49,47.59359,-54.27349
2019-11-23 06:44:01+00:00,330.0,2.48,322.0,2.99,12.49,47.59359,-54.27349
2019-11-23 06:54:01+00:00,323.0,2.14,326.0,3.09,12.49,47.59359,-54.27349
2019-11-23 07:04:01+00:00,355.0,1.12,325.0,1.67,12.49,47.59359,-54.27349
2019-11-23 07:14:01+00:00,269.0,0.75,252.0,1.72,12.49,47.59359,-54.27349
2019-11-23 07:24:01+00:00,190.0,0.62,199.0,1.01,12.49,47.59359,-54.27349
2019-11-23 07:34:01+00:00,249.0,1.23,247.0,1.67,12.49,47.59359,-54.27349
2019-11-23 07:44:01+00:00,146.0,2.38,149.0,2.79,12.49,47.59359,-54.27349
2019-11-23 07:54:01+00:00,139.0,1.92,137.0,2.47,12.49,47.59359,-54.27349
2019-11-23 08:04:01+00:00,57.0,1.76,46.0,2.31,12.49,47.59359,-54.27349
2019-11-23 08:14:01+00:00,82.0,3.07,82.0,3.72,12.49,47.59359,-54.27349
2019-11-23 08:24:01+00:00,132.0,1.79,137.0,1.99,12.49,47.59359,-54.27349
2019-11-23 08:34:01+00:00,129.0,1.19,141.0,1.6,12.49,47.59359,-54.27349
2019-11-23 08:44:01+00:00,183.0,1.66,190.0,1.97,12.49,47.59359,-54.27349
2019-11-23 08:54:01+00:00,107.0,0.97,101.0,1.31,12.49,47.59359,-54.27349
2019-11-23 09:04:01+00:00,119.0,1.84,114.0,2.36,12.49,47.59359,-54.27349
2019-11-23 09:14:01+00:00,92.0,1.55,88.0,2.05,12.49,47.59359,-54.27349
2019-11-23 09:24:01+00:00,133.0,1.21,128.0,1.58,12.49,47.59359,-54.27349
2019-11-23 09:34:01+00:00,149.0,1.86,142.0,2.23,12.49,47.59359,-54.27349
2019-11-23 09:44:01+00:00,157.0,2.92,155.0,3.51,12.49,47.59359,-54.27349
2019-11-23 09:54:01+00:00,131.0,1.63,127.0,2.03,12.49,47.59359,-54.27349
2019-11-23 10:04:01+00:00,146.0,1.7,151.0,2.18,12.49,47.59359,-54.27349
2019-11-23 10:14:01+00:00,151.0,1.84,150.0,2.54,12.49,47.59359,-54.27349
2019-11-23 10:24:01+00:00,116.0,2.11,120.0,3.14,12.49,47.59359,-54.27349
2019-11-23 10:34:01+00:00,150.0,3.85,149.0,4.83,12.49,47.59359,-54.27349
2019-11-23 10:44:01+00:00,150.0,4.71,144.0,5.71,12.49,47.59359,-54.27349
2019-11-23 10:54:01+00:00,159.0,4.32,154.0,5.34,12.49,47.59359,-54.27349
2019-11-23 11:04:01+00:00,164.0,3.71,160.0,4.26,12.49,47.59359,-54.27349
2019-11-23 11:14:01+00:00,183.0,3.52,203.0,5.08,12.49,47.59359,-54.27349
2019-11-23 11:24:01+00:00,181.0,5.12,181.0,6.2,12.49,47.59359,-54.27349
2019-11-23 11:34:01+00:00,191.0,5.02,195.0,6.1,12.49,47.59359,-54.27349
2019-11-23 11:44:01+00:00,189.0,4.69,188.0,5.14,12.49,47.59359,-54.27349
2019-11-23 11:54:01+00:00,183.0,3.74,177.0,4.5,12.49,47.59359,-54.27349
2019-11-23 12:04:01+00:00,186.0,4.02,186.0,4.88,12.49,47.59359,-54.27349
2019-11-23 12:14:01+00:00,164.0,4.56,167.0,4.99,12.49,47.59359,-54.27349
2019-11-23 12:24:01+00:00,163.0,4.1,160.0,4.47,12.49,47.59359,-54.27349
2019-11-23 12:34:01+00:00,165.0,5.02,170.0,5.92,12.49,47.59359,-54.27349
2019-11-23 12:44:01+00:00,159.0,5.89,164.0,6.73,12.49,47.59359,-54.27349
2019-11-23 12:54:01+00:00,160.0,5.96,165.0,7.13,12.49,47.59359,-54.27349
2019-11-23 13:04:01+00:00,160.0,7.19,161.0,7.78,12.49,47.59359,-54.27349
2019-11-23 13:14:01+00:00,169.0,7.45,170.0,8.23,12.81,47.59359,-54.27349
2019-11-23 13:24:01+00:00,174.0,5.21,167.0,6.03,12.81,47.59359,-54.27349
2019-11-23 13:34:01+00:00,162.0,3.59,160.0,4.21,12.81,47.59359,-54.27349
2019-11-23 13:44:01+00:00,134.0,4.54,144.0,5.88,12.81,47.59359,-54.27349
2019-11-23 13:54:01+00:00,122.0,4.34,124.0,6.66,12.81,47.59359,-54.27349
2019-11-23 14:04:01+00:00,116.0,3.64,141.0,5.34,12.81,47.59359,-54.27349
2019-11-23 14:14:01+00:00,234.0,4.43,236.0,5.48,12.81,47.59359,-54.27349
2019-11-23 14:24:01+00:00,202.0,4.98,205.0,6.39,12.81,47.59359,-54.27349
2019-11-23 14:34:01+00:00,172.0,7.62,166.0,9.48,12.81,47.59359,-54.27349
2019-11-23 14:44:01+00:00,171.0,5.82,173.0,6.93,12.81,47.59359,-54.27349
2019-11-23 14:54:01+00:00,152.0,2.62,167.0,3.18,12.81,47.59359,-54.27349
2019-11-23 15:04:01+00:00,151.0,6.82,135.0,9.07,12.81,47.59359,-54.27349
2019-11-23 15:14:01+00:00,146.0,3.82,150.0,5.42,12.73,47.59359,-54.27349
2019-11-23 15:24:01+00:00,224.0,2.02,204.0,3.52,12.73,47.59359,-54.27349
2019-11-23 15:34:01+00:00,188.0,4.59,191.0,7.18,12.73,47.59359,-54.27349
2019-11-23 15:44:01+00:00,186.0,8.32,189.0,9.3,12.73,47.59359,-54.27349
2019-11-23 15:54:01+00:00,176.0,9.28,178.0,9.92,12.73,47.59359,-54.27349
2019-11-23 16:04:01+00:00,175.0,11.7,172.0,12.63,12.73,47.59359,-54.27349
2019-11-23 16:14:01+00:00,193.0,9.52,185.0,14.18,12.65,47.59359,-54.27349
2019-11-23 16:24:01+00:00,187.0,13.41,189.0,14.95,12.65,47.59359,-54.27349
2019-11-23 16:34:01+00:00,190.0,12.04,194.0,13.49,12.65,47.59359,-54.27349
2019-11-23 16:44:01+00:00,203.0,11.62,199.0,15.05,12.65,47.59359,-54.27349
2019-11-23 16:54:01+00:00,208.0,9.6,209.0,10.44,12.65,47.59359,-54.27349
2019-11-23 17:04:01+00:00,217.0,10.2,216.0,11.12,12.65,47.59359,-54.27349
2019-11-23 18:14:01+00:00,235.0,10.95,237.0,13.5,13.05,47.59359,-54.27349
2019-11-23 18:24:01+00:00,245.0,10.45,245.0,12.03,13.05,47.59359,-54.27349
2019-11-23 18:34:01+00:00,255.0,10.48,259.0,11.86,13.05,47.59359,-54.27349
2019-11-23 18:44:01+00:00,252.0,9.32,255.0,10.36,13.05,47.59359,-54.27349
2019-11-23 18:54:01+00:00,252.0,11.08,254.0,12.98,13.05,47.59359,-54.27349
2019-11-23 19:04:01+00:00,241.0,8.72,233.0,10.77,13.05,47.59359,-54.27349
2019-11-23 19:14:01+00:00,238.0,9.12,239.0,10.77,13.44,47.59359,-54.27349
2019-11-23 19:24:01+00:00,240.0,9.88,240.0,11.2,13.44,47.59359,-54.27349
2019-11-23 19:34:01+00:00,241.0,8.84,245.0,10.69,13.44,47.59359,-54.27349
2019-11-23 19:44:01+00:00,242.0,8.67,243.0,10.21,13.44,47.59359,-54.27349
2019-11-23 19:54:01+00:00,242.0,8.94,242.0,10.82,13.44,47.59359,-54.27349
2019-11-23 20:04:01+00:00,241.0,9.34,238.0,10.64,13.44,47.59359,-54.27349
2019-11-23 20:14:01+00:00,238.0,9.34,238.0,10.27,12.89,47.59359,-54.27349
2019-11-23 20:24:01+00:00,240.0,9.56,236.0,11.8,12.89,47.59359,-54.27349
2019-11-23 20:34:01+00:00,241.0,9.7,241.0,11.14,12.89,47.59359,-54.27349
2019-11-23 20:44:01+00:00,242.0,9.41,241.0,10.96,12.89,47.59359,-54.27349
2019-11-23 20:54:01+00:00,245.0,9.02,251.0,11.05,12.89,47.59359,-54.27349
2019-11-23 21:04:01+00:00,246.0,9.88,248.0,11.2,12.89,47.59359,-54.27349
2019-11-23 21:14:01+00:00,251.0,10.72,254.0,12.58,12.65,47.59359,-54.27349
2019-11-23 21:24:01+00:00,250.0,10.77,253.0,12.16,12.65,47.59359,-54.27349
2019-11-23 21:34:01+00:00,257.0,10.88,260.0,11.82,12.65,47.59359,-54.27349
2019-11-23 21:44:01+00:00,254.0,9.11,253.0,10.22,12.65,47.59359,-54.27349
2019-11-23 21:54:01+00:00,255.0,7.8,251.0,9.0,12.65,47.59359,-54.27349
2019-11-23 22:04:01+00:00,255.0,8.3,259.0,9.22,12.65,47.59359,-54.27349
2019-11-23 22:14:01+00:00,252.0,8.35,255.0,10.18,12.65,47.59359,-54.27349
2019-11-23 22:24:01+00:00,255.0,7.66,254.0,9.52,12.65,47.59359,-54.27349
2019-11-23 22:34:01+00:00,262.0,7.23,262.0,8.22,12.65,47.59359,-54.27349
2019-11-23 22:44:01+00:00,257.0,7.03,256.0,7.93,12.65,47.59359,-54.27349
2019-11-23 22:54:01+00:00,250.0,7.65,253.0,8.77,12.65,47.59359,-54.27349
2019-11-23 23:04:01+00:00,254.0,8.25,253.0,9.89,12.65,47.59359,-54.27349
2019-11-23 23:14:01+00:00,256.0,8.58,255.0,9.61,12.57,47.59359,-54.27349
2019-11-23 23:24:01+00:00,247.0,6.88,250.0,8.07,12.57,47.59359,-54.27349
2019-11-23 23:34:01+00:00,247.0,6.87,250.0,8.28,12.57,47.59359,-54.27349
2019-11-23 23:44:01+00:00,264.0,9.26,265.0,10.38,12.57,47.59359,-54.27349
2019-11-23 23:54:01+00:00,274.0,9.19,276.0,11.33,12.57,47.59359,-54.27349
